Find Starlink 32013

NORAD ID: 60103 Int'l Des: 2024-117 Owner: SPXS Country: US Constellation: starlink operational
LEOCIRCULAR

リアルタイム位置

3D地球を読み込み中...

Starlink 32013について

説明を読み込み中...

次回通過

Passes for default location (London). Set your location on the main map for personalized predictions.

高度履歴

Loading altitude history...

軌道要素

1 60103U 24117N 26126.29353203 -.00000942 00000-0 -19685-4 0 9999
2 60103 53.1590 129.7134 0001316 54.5759 305.5365 15.30181691105703
Epoch: May 6, 2026 • Age: 19 hours

現在のステータス

高度 486.2 km
速度 7.62 km/s
衛星直下点 -34.03°S, 153.97°W
打ち上げ日 Jun 23, 2024
運用期間 1.8 years
タイプ internet

技術仕様

分類 Payload
質量 730.00 kg
乾燥質量 700.00 kg
総質量 730.00 kg
長さ 0.30 m
直径 4.10 m
スパン 29.00 m
形状 Box + pan
製造者 SPXS
バスタイプ Starlink V2M
フェーズステータス In Orbit
所有者/国 SPXS/US

Most Searched